Time,TemperatureF,DewpointF,PressureIn,WindDirection,WindDirectionDegrees,WindSpeedMPH,WindSpeedGustMPH,Humidity,HourlyPrecipIn,Conditions,Clouds,dailyrainin,SolarRadiationWatts/m^2,SoftwareType,DateUTC
2013-10-17 00:02:00,47.0,36.0,-100.00,SE,137,1.0,5.0,66,0.00,,,0.00,0.000000,,2013-10-17 07:02:00,
2013-10-17 00:11:00,47.0,36.0,-100.00,SE,137,1.0,5.0,66,0.00,,,0.00,0.000000,,2013-10-17 07:11:00,
2013-10-17 00:22:00,47.0,36.0,-100.00,SE,137,1.0,5.0,66,0.00,,,0.00,0.000000,,2013-10-17 07:22:00,
2013-10-17 00:52:00,47.0,35.0,-100.00,SSE,158,1.0,4.0,62,0.00,,,0.00,0.000000,,2013-10-17 07:52:00,
2013-10-17 01:02:00,47.0,35.0,-100.00,SSE,158,1.0,4.0,62,0.00,,,0.00,0.000000,,2013-10-17 08:02:00,
2013-10-17 01:11:00,47.0,35.0,-100.00,SSE,158,1.0,4.0,62,0.00,,,0.00,0.000000,,2013-10-17 08:11:00,
2013-10-17 01:21:00,47.0,35.0,-100.00,SSE,158,1.0,4.0,62,0.00,,,0.00,0.000000,,2013-10-17 08:21:00,
2013-10-17 01:52:00,47.0,34.0,-100.00,SSE,152,1.0,5.0,61,0.00,,,0.00,0.000000,,2013-10-17 08:52:00,
2013-10-17 02:02:00,47.0,34.0,-100.00,SSE,152,1.0,5.0,61,0.00,,,0.00,0.000000,,2013-10-17 09:02:00,
2013-10-17 02:11:00,47.0,34.0,-100.00,SSE,152,1.0,5.0,61,0.00,,,0.00,0.000000,,2013-10-17 09:11:00,
2013-10-17 02:21:00,47.0,34.0,-100.00,SSE,152,1.0,5.0,61,0.00,,,0.00,0.000000,,2013-10-17 09:21:00,
2013-10-17 02:53:00,49.0,34.0,-100.00,SW,216,2.0,4.0,57,0.00,,,0.00,0.000000,,2013-10-17 09:53:00,
2013-10-17 03:03:00,49.0,34.0,-100.00,SW,216,2.0,4.0,57,0.00,,,0.00,0.000000,,2013-10-17 10:03:00,
2013-10-17 03:12:00,49.0,34.0,-100.00,SW,216,2.0,4.0,57,0.00,,,0.00,0.000000,,2013-10-17 10:12:00,
2013-10-17 03:23:00,49.0,34.0,-100.00,SW,216,2.0,4.0,57,0.00,,,0.00,0.000000,,2013-10-17 10:23:00,
2013-10-17 03:53:00,47.0,34.0,-100.00,SE,126,2.0,4.0,60,0.00,,,0.00,0.000000,,2013-10-17 10:53:00,
2013-10-17 04:02:00,47.0,34.0,-100.00,SE,126,2.0,4.0,60,0.00,,,0.00,0.000000,,2013-10-17 11:02:00,
2013-10-17 04:11:00,47.0,34.0,-100.00,SE,126,2.0,4.0,60,0.00,,,0.00,0.000000,,2013-10-17 11:11:00,
2013-10-17 04:22:00,47.0,34.0,-100.00,SE,126,2.0,4.0,60,0.00,,,0.00,0.000000,,2013-10-17 11:22:00,
2013-10-17 04:52:00,49.0,34.0,-100.00,East,91,2.0,6.0,57,0.00,,,0.00,0.000000,,2013-10-17 11:52:00,
2013-10-17 05:02:00,49.0,34.0,-100.00,East,91,2.0,6.0,57,0.00,,,0.00,0.000000,,2013-10-17 12:02:00,
2013-10-17 05:12:00,49.0,34.0,-100.00,East,91,2.0,6.0,57,0.00,,,0.00,0.000000,,2013-10-17 12:12:00,
2013-10-17 05:22:00,49.0,34.0,-100.00,East,91,2.0,6.0,57,0.00,,,0.00,0.000000,,2013-10-17 12:22:00,
2013-10-17 05:52:00,45.0,34.0,-100.00,ESE,117,2.0,8.0,66,0.00,,,0.00,0.000000,,2013-10-17 12:52:00,
2013-10-17 06:02:00,45.0,34.0,-100.00,ESE,117,2.0,8.0,66,0.00,,,0.00,0.000000,,2013-10-17 13:02:00,
2013-10-17 06:11:00,45.0,34.0,-100.00,ESE,117,2.0,8.0,66,0.00,,,0.00,0.000000,,2013-10-17 13:11:00,
2013-10-17 06:21:00,45.0,34.0,-100.00,ESE,117,2.0,8.0,66,0.00,,,0.00,0.000000,,2013-10-17 13:21:00,
2013-10-17 06:52:00,47.0,35.0,-100.00,SSW,211,1.0,5.0,62,0.00,,,0.00,0.000000,,2013-10-17 13:52:00,
2013-10-17 07:02:00,47.0,35.0,-100.00,SSW,211,1.0,5.0,62,0.00,,,0.00,0.000000,,2013-10-17 14:02:00,
2013-10-17 07:11:00,47.0,35.0,-100.00,SSW,211,1.0,5.0,62,0.00,,,0.00,0.000000,,2013-10-17 14:11:00,
2013-10-17 07:21:00,47.0,35.0,-100.00,SSW,211,1.0,5.0,62,0.00,,,0.00,0.000000,,2013-10-17 14:21:00,
2013-10-17 07:52:00,47.0,34.0,-100.00,NE,53,2.0,4.0,61,0.00,,,0.00,0.000000,,2013-10-17 14:52:00,
2013-10-17 08:02:00,47.0,34.0,-100.00,NE,53,2.0,4.0,61,0.00,,,0.00,0.000000,,2013-10-17 15:02:00,
2013-10-17 08:11:00,47.0,34.0,-100.00,NE,53,2.0,4.0,61,0.00,,,0.00,0.000000,,2013-10-17 15:11:00,
2013-10-17 08:22:00,47.0,34.0,-100.00,NE,53,2.0,4.0,61,0.00,,,0.00,0.000000,,2013-10-17 15:22:00,
2013-10-17 08:53:00,46.0,35.0,-100.00,SE,138,0.0,4.0,66,0.00,,,0.00,9.000000,,2013-10-17 15:53:00,
2013-10-17 09:03:00,46.0,35.0,-100.00,SE,138,0.0,4.0,66,0.00,,,0.00,9.000000,,2013-10-17 16:03:00,
2013-10-17 09:12:00,46.0,35.0,-100.00,SE,138,0.0,4.0,66,0.00,,,0.00,9.000000,,2013-10-17 16:12:00,
2013-10-17 09:23:00,46.0,35.0,-100.00,SE,138,0.0,4.0,66,0.00,,,0.00,9.000000,,2013-10-17 16:23:00,
2013-10-17 09:53:00,48.0,38.0,-100.00,ESE,113,2.0,5.0,67,0.00,,,0.00,21.000000,,2013-10-17 16:53:00,
2013-10-17 10:02:00,48.0,38.0,-100.00,ESE,113,2.0,5.0,67,0.00,,,0.00,21.000000,,2013-10-17 17:02:00,
2013-10-17 10:12:00,48.0,38.0,-100.00,ESE,113,2.0,5.0,67,0.00,,,0.00,21.000000,,2013-10-17 17:12:00,
2013-10-17 10:21:00,48.0,38.0,-100.00,ESE,113,2.0,5.0,67,0.00,,,0.00,21.000000,,2013-10-17 17:21:00,
2013-10-17 10:53:00,57.0,36.0,-100.00,WNW,287,1.0,4.0,46,0.00,,,-99.99,219.000000,,2013-10-17 17:53:00,
2013-10-17 11:02:00,57.0,36.0,-100.00,WNW,287,1.0,4.0,46,0.00,,,-99.99,219.000000,,2013-10-17 18:02:00,
2013-10-17 11:11:00,57.0,36.0,-100.00,WNW,287,1.0,4.0,46,0.00,,,-99.99,219.000000,,2013-10-17 18:11:00,
2013-10-17 11:21:00,57.0,36.0,-100.00,WNW,287,1.0,4.0,46,0.00,,,-99.99,219.000000,,2013-10-17 18:21:00,
2013-10-17 11:52:00,58.0,37.0,-100.00,NNW,327,1.0,3.0,45,0.00,,,0.00,419.000000,,2013-10-17 18:52:00,
2013-10-17 12:01:00,58.0,37.0,-100.00,NNW,327,1.0,3.0,45,0.00,,,0.00,419.000000,,2013-10-17 19:01:00,
2013-10-17 12:11:00,58.0,37.0,-100.00,NNW,327,1.0,3.0,45,0.00,,,0.00,419.000000,,2013-10-17 19:11:00,
2013-10-17 12:21:00,58.0,37.0,-100.00,NNW,327,1.0,3.0,45,0.00,,,0.00,419.000000,,2013-10-17 19:21:00,
2013-10-17 12:53:00,59.0,37.0,-100.00,WNW,302,3.0,4.0,44,0.00,,,0.00,499.000000,,2013-10-17 19:53:00,
2013-10-17 13:02:00,59.0,37.0,-100.00,WNW,302,3.0,4.0,44,0.00,,,0.00,499.000000,,2013-10-17 20:02:00,
2013-10-17 13:11:00,59.0,37.0,-100.00,WNW,302,3.0,4.0,44,0.00,,,0.00,499.000000,,2013-10-17 20:11:00,
2013-10-17 13:22:00,59.0,37.0,-100.00,WNW,302,3.0,4.0,44,0.00,,,0.00,499.000000,,2013-10-17 20:22:00,
2013-10-17 13:52:00,61.0,35.0,-100.00,NW,324,2.0,5.0,38,0.00,,,0.00,531.000000,,2013-10-17 20:52:00,
2013-10-17 14:02:00,61.0,35.0,-100.00,NW,324,2.0,5.0,38,0.00,,,0.00,531.000000,,2013-10-17 21:02:00,
2013-10-17 14:11:00,61.0,35.0,-100.00,NW,324,2.0,5.0,38,0.00,,,0.00,531.000000,,2013-10-17 21:11:00,
2013-10-17 14:21:00,61.0,35.0,-100.00,NW,324,2.0,5.0,38,0.00,,,0.00,531.000000,,2013-10-17 21:21:00,
2013-10-17 14:54:00,62.0,33.0,-100.00,WNW,288,3.0,8.0,33,0.00,,,0.00,515.000000,,2013-10-17 21:54:00,
2013-10-17 15:04:00,62.0,33.0,-100.00,WNW,288,3.0,8.0,33,0.00,,,0.00,515.000000,,2013-10-17 22:04:00,
2013-10-17 15:13:00,62.0,33.0,-100.00,WNW,288,3.0,8.0,33,0.00,,,0.00,515.000000,,2013-10-17 22:13:00,
2013-10-17 15:24:00,62.0,33.0,-100.00,WNW,288,3.0,8.0,33,0.00,,,0.00,515.000000,,2013-10-17 22:24:00,
2013-10-17 15:53:00,61.0,34.0,-100.00,West,261,5.0,8.0,36,-99.99,,,0.00,450.000000,,2013-10-17 22:53:00,
2013-10-17 16:03:00,61.0,34.0,-100.00,West,261,5.0,8.0,36,-99.99,,,0.00,450.000000,,2013-10-17 23:03:00,
2013-10-17 16:13:00,61.0,34.0,-100.00,West,261,5.0,8.0,36,-99.99,,,0.00,450.000000,,2013-10-17 23:13:00,
2013-10-17 16:22:00,61.0,34.0,-100.00,West,261,5.0,8.0,36,-99.99,,,0.00,450.000000,,2013-10-17 23:22:00,
2013-10-17 16:53:00,62.0,28.0,-100.00,North,6,2.0,7.0,27,0.00,,,0.00,337.000000,,2013-10-17 23:53:00,
2013-10-17 17:02:00,62.0,28.0,-100.00,North,6,2.0,7.0,27,0.00,,,0.00,337.000000,,2013-10-18 00:02:00,
2013-10-17 17:12:00,62.0,28.0,-100.00,North,6,2.0,7.0,27,0.00,,,0.00,337.000000,,2013-10-18 00:12:00,
2013-10-17 17:22:00,62.0,28.0,-100.00,North,6,2.0,7.0,27,0.00,,,0.00,337.000000,,2013-10-18 00:22:00,
2013-10-17 17:53:00,61.0,27.0,-100.00,West,268,3.0,7.0,27,0.00,,,0.00,205.000000,,2013-10-18 00:53:00,
2013-10-17 18:02:00,61.0,27.0,-100.00,West,268,3.0,7.0,27,0.00,,,0.00,205.000000,,2013-10-18 01:02:00,
2013-10-17 18:12:00,61.0,27.0,-100.00,West,268,3.0,7.0,27,0.00,,,0.00,205.000000,,2013-10-18 01:12:00,
2013-10-17 18:21:00,61.0,27.0,-100.00,West,268,3.0,7.0,27,0.00,,,0.00,205.000000,,2013-10-18 01:21:00,
2013-10-17 19:52:00,53.0,34.0,-100.00,ENE,77,1.0,5.0,49,0.00,,,0.00,1.000000,,2013-10-18 02:52:00,
2013-10-17 20:03:00,53.0,34.0,-100.00,ENE,77,1.0,5.0,49,0.00,,,0.00,1.000000,,2013-10-18 03:03:00,
2013-10-17 20:11:00,53.0,34.0,-100.00,ENE,77,1.0,5.0,49,0.00,,,0.00,1.000000,,2013-10-18 03:11:00,
2013-10-17 20:22:00,53.0,34.0,-100.00,ENE,77,1.0,5.0,49,0.00,,,0.00,1.000000,,2013-10-18 03:22:00,
2013-10-17 20:55:00,51.0,34.0,-100.00,ESE,114,2.0,5.0,52,0.00,,,0.00,0.000000,,2013-10-18 03:55:00,
2013-10-17 21:05:00,51.0,34.0,-100.00,ESE,114,2.0,5.0,52,0.00,,,0.00,0.000000,,2013-10-18 04:05:00,
2013-10-17 21:14:00,51.0,34.0,-100.00,ESE,114,2.0,5.0,52,0.00,,,0.00,0.000000,,2013-10-18 04:14:00,
2013-10-17 21:24:00,51.0,34.0,-100.00,ESE,114,2.0,5.0,52,0.00,,,0.00,0.000000,,2013-10-18 04:24:00,
2013-10-17 21:53:00,51.0,33.0,-100.00,South,185,1.0,5.0,50,0.00,,,0.00,0.000000,,2013-10-18 04:53:00,
2013-10-17 22:03:00,51.0,33.0,-100.00,South,185,1.0,5.0,50,0.00,,,0.00,0.000000,,2013-10-18 05:03:00,
2013-10-17 22:12:00,51.0,33.0,-100.00,South,185,1.0,5.0,50,0.00,,,0.00,0.000000,,2013-10-18 05:12:00,
2013-10-17 22:22:00,51.0,33.0,-100.00,South,185,1.0,5.0,50,0.00,,,0.00,0.000000,,2013-10-18 05:22:00,
2013-10-17 22:52:00,52.0,30.0,-100.00,WNW,293,0.0,5.0,42,0.00,,,0.00,0.000000,,2013-10-18 05:52:00,
2013-10-17 23:02:00,52.0,30.0,-100.00,WNW,293,0.0,5.0,42,0.00,,,0.00,0.000000,,2013-10-18 06:02:00,
2013-10-17 23:12:00,52.0,30.0,-100.00,WNW,293,0.0,5.0,42,0.00,,,0.00,0.000000,,2013-10-18 06:12:00,
2013-10-17 23:21:00,52.0,30.0,-100.00,WNW,293,0.0,5.0,42,0.00,,,0.00,0.000000,,2013-10-18 06:21:00,
2013-10-17 23:52:00,52.0,30.0,-100.00,South,182,1.0,3.0,42,0.00,,,0.00,0.000000,,2013-10-18 06:52:00,